Location: Unspecified
(43.1763°N, 79.4719°W)
Time: 16:06:35
(UTC-04:00)

ISS - Visible Passes

Search period start: 25 May 2017 00:00
Search period end: 04 June 2017 00:00
Orbit: 402 x 408 km, 51.6° (Epoch: 26 May)

Date Brightness Start Highest point End Pass type
(mag) Time Alt. Az. Time Alt. Az. Time Alt. Az.
25 May -0.9 01:18:12 10° NW 01:20:36 18° N 01:22:59 10° NE visible
25 May -1.9 02:54:49 10° NW 02:57:48 31° NNE 03:00:47 10° E visible
25 May -3.6 04:31:13 10° WNW 04:34:24 46° SW 04:37:33 10° SE visible
25 May -2.4 22:48:02 10° W 22:51:11 41° NNW 22:54:20 10° NE visible
26 May -0.9 00:25:51 10° NW 00:28:18 19° N 00:30:45 10° NE visible
26 May -1.4 02:02:50 10° NW 02:05:35 24° NNE 02:08:19 10° ENE visible
26 May -4.0 03:39:07 10° WNW 03:42:24 87° SW 03:45:41 10° SE visible
26 May -3.4 21:55:47 10° WSW 21:59:04 67° NNW 22:02:21 10° NE visible
26 May -1.1 23:33:23 10° WNW 23:36:01 21° N 23:38:37 10° NE visible
27 May -1.1 01:10:47 10° NW 01:13:19 20° N 01:15:51 10° ENE visible
27 May -3.1 02:47:05 10° NW 02:50:19 54° NNE 02:51:15 38° E visible
27 May -2.2 04:27:43 17° SSW 04:27:43 17° SSW 04:29:04 10° S visible
27 May -1.5 22:40:53 10° WNW 22:43:44 26° NNW 22:46:35 10° NE visible
28 May -0.9 00:18:35 10° NW 00:21:00 18° N 00:23:24 10° NE visible
28 May -2.0 01:55:06 10° NW 01:57:34 32° N 01:57:34 32° N visible
28 May -2.0 21:48:25 10° W 21:51:30 35° NNW 21:54:35 10° NE visible
28 May -0.9 23:26:14 10° NW 23:28:40 19° N 23:31:04 10° NE visible
29 May -1.7 01:03:05 10° NW 01:05:56 26° NNE 01:06:21 25° NNE visible
29 May -1.0 22:33:46 10° WNW 22:36:20 20° N 22:38:53 10° NE visible
30 May -1.3 00:11:01 10° NW 00:13:38 21° N 00:15:30 14° NE visible
30 May -1.3 01:47:18 10° NW 01:48:07 16° NW 01:48:07 16° NW visible
30 May -1.3 21:41:15 10° WNW 21:44:00 24° NNW 21:46:46 10° NE visible
30 May -1.1 23:18:50 10° NW 23:21:18 19° N 23:23:44 10° NE visible
31 May -2.0 00:55:15 10° NW 00:57:27 32° NNW 00:57:27 32° NNW visible
31 May -1.0 22:26:31 10° NW 22:28:55 18° N 22:31:20 10° NE visible
01 Jun -2.0 00:03:13 10° NW 00:06:09 29° NNE 00:06:50 26° NE visible
01 Jun -1.1 21:34:03 10° NW 21:36:32 19° N 21:39:02 10° NE visible
01 Jun -1.5 23:11:08 10° NW 23:13:51 23° NNE 23:16:16 11° ENE visible
02 Jun -1.8 00:47:24 10° NW 00:48:54 25° NW 00:48:54 25° NW visible
02 Jun -1.3 22:18:57 10° NW 22:21:28 20° N 22:23:58 10° ENE visible
02 Jun -3.0 23:55:18 10° NW 23:58:23 48° NNE 23:58:23 48° NNE visible
03 Jun -1.2 21:26:39 10° NW 21:29:04 18° N 21:31:28 10° NE visible
03 Jun -2.3 23:03:14 10° NW 23:06:15 32° NNE 23:07:54 20° ENE visible
